Location: Andiroba
(19.8650°S, 43.9258°W)
Time: 01:28:14
(UTC+00:00)

H-2A R/B (2) - Pass Details

Date: 15 June 2024
Orbit: 467 x 34265 km, 28.5° (Epoch: 23 July)

Event Time Altitude Azimuth Distance (km) Brightness Sun altitude
Exits shadow 07:26:51 33° 93° (E) 847 2.7 -27.6°
Drops below altitude 10° 07:29:12 10° 107° (ESE) 2,044 4.9 -27.1°
Sets 07:32:26 0° 110° (ESE) 3,759 6.3 -26.3°
